Location: Alphen
(52.1351°N, 4.6549°E)
Time: 01:42:34
(UTC+00:00)

NOSS 3-2 (A) - Pass Details

Date: 27 January 2021
Orbit: 783 x 1425 km, 63.4° (Epoch: 25 February)

Event Time Altitude Azimuth Distance (km) Brightness Sun altitude
Rises 06:48:50 0° 250° (WSW) 3,431 5.9 -6.4°
Reaches altitude 10° 06:51:16 10° 256° (WSW) 2,562 5.2 -6.0°
Maximum altitude 06:57:02 49° 331° (NNW) 1,254 3.8 -5.2°
Drops below altitude 10° 07:03:49 10° 46° (NE) 2,989 6.4 -4.3°
Sets 07:06:51 0° 52° (NE) 4,055 7.1 -3.9°
